Index of /20260412/WXO-DD/model_gdps/15km/12/030
Name Last modified Size Description
Parent Directory -
20260412T12Z_MSC_GDPS_AbsoluteVorticity_IsbL-0200_LatLon0.15_PT030H.grib2 2026-04-12 16:18 1.2M
20260412T12Z_MSC_GDPS_AbsoluteVorticity_IsbL-0250_LatLon0.15_PT030H.grib2 2026-04-12 16:18 1.3M
20260412T12Z_MSC_GDPS_AbsoluteVorticity_IsbL-0500_LatLon0.15_PT030H.grib2 2026-04-12 16:18 1.2M
20260412T12Z_MSC_GDPS_AbsoluteVorticity_IsbL-0700_LatLon0.15_PT030H.grib2 2026-04-12 16:18 1.3M
20260412T12Z_MSC_GDPS_AbsoluteVorticity_IsbL-0850_LatLon0.15_PT030H.grib2 2026-04-12 16:18 1.6M
20260412T12Z_MSC_GDPS_AirTemp-Max_AGL-2m_LatLon0.15_PT030H.grib2 2026-04-12 16:18 747K
20260412T12Z_MSC_GDPS_AirTemp-Min_AGL-2m_LatLon0.15_PT030H.grib2 2026-04-12 16:18 794K
20260412T12Z_MSC_GDPS_AirTemp_AGL-120m_LatLon0.15_PT030H.grib2 2026-04-12 16:18 911K
20260412T12Z_MSC_GDPS_AirTemp_AGL-2m_LatLon0.15_PT030H.grib2 2026-04-12 16:18 1.0M
20260412T12Z_MSC_GDPS_AirTemp_AGL-40m_LatLon0.15_PT030H.grib2 2026-04-12 16:18 934K
20260412T12Z_MSC_GDPS_AirTemp_AGL-80m_LatLon0.15_PT030H.grib2 2026-04-12 16:18 921K
20260412T12Z_MSC_GDPS_AirTemp_IsbL-0001_LatLon0.15_PT030H.grib2 2026-04-12 16:18 635K
20260412T12Z_MSC_GDPS_AirTemp_IsbL-0005_LatLon0.15_PT030H.grib2 2026-04-12 16:18 684K
20260412T12Z_MSC_GDPS_AirTemp_IsbL-0010_LatLon0.15_PT030H.grib2 2026-04-12 16:18 761K
20260412T12Z_MSC_GDPS_AirTemp_IsbL-0020_LatLon0.15_PT030H.grib2 2026-04-12 16:18 707K
20260412T12Z_MSC_GDPS_AirTemp_IsbL-0030_LatLon0.15_PT030H.grib2 2026-04-12 16:18 753K
20260412T12Z_MSC_GDPS_AirTemp_IsbL-0050_LatLon0.15_PT030H.grib2 2026-04-12 16:18 820K
20260412T12Z_MSC_GDPS_AirTemp_IsbL-0100_LatLon0.15_PT030H.grib2 2026-04-12 16:18 955K
20260412T12Z_MSC_GDPS_AirTemp_IsbL-0150_LatLon0.15_PT030H.grib2 2026-04-12 16:18 1.0M
20260412T12Z_MSC_GDPS_AirTemp_IsbL-0175_LatLon0.15_PT030H.grib2 2026-04-12 16:18 964K
20260412T12Z_MSC_GDPS_AirTemp_IsbL-0200_LatLon0.15_PT030H.grib2 2026-04-12 16:18 1.0M
20260412T12Z_MSC_GDPS_AirTemp_IsbL-0225_LatLon0.15_PT030H.grib2 2026-04-12 16:18 1.0M
20260412T12Z_MSC_GDPS_AirTemp_IsbL-0250_LatLon0.15_PT030H.grib2 2026-04-12 16:18 1.0M
20260412T12Z_MSC_GDPS_AirTemp_IsbL-0275_LatLon0.15_PT030H.grib2 2026-04-12 16:18 951K
20260412T12Z_MSC_GDPS_AirTemp_IsbL-0300_LatLon0.15_PT030H.grib2 2026-04-12 16:18 960K
20260412T12Z_MSC_GDPS_AirTemp_IsbL-0350_LatLon0.15_PT030H.grib2 2026-04-12 16:18 934K
20260412T12Z_MSC_GDPS_AirTemp_IsbL-0400_LatLon0.15_PT030H.grib2 2026-04-12 16:18 944K
20260412T12Z_MSC_GDPS_AirTemp_IsbL-0450_LatLon0.15_PT030H.grib2 2026-04-12 16:18 968K
20260412T12Z_MSC_GDPS_AirTemp_IsbL-0500_LatLon0.15_PT030H.grib2 2026-04-12 16:18 1.0M
20260412T12Z_MSC_GDPS_AirTemp_IsbL-0550_LatLon0.15_PT030H.grib2 2026-04-12 16:18 1.0M
20260412T12Z_MSC_GDPS_AirTemp_IsbL-0600_LatLon0.15_PT030H.grib2 2026-04-12 16:18 899K
20260412T12Z_MSC_GDPS_AirTemp_IsbL-0650_LatLon0.15_PT030H.grib2 2026-04-12 16:18 921K
20260412T12Z_MSC_GDPS_AirTemp_IsbL-0700_LatLon0.15_PT030H.grib2 2026-04-12 16:18 957K
20260412T12Z_MSC_GDPS_AirTemp_IsbL-0750_LatLon0.15_PT030H.grib2 2026-04-12 16:18 1.0M
20260412T12Z_MSC_GDPS_AirTemp_IsbL-0800_LatLon0.15_PT030H.grib2 2026-04-12 16:18 1.1M
20260412T12Z_MSC_GDPS_AirTemp_IsbL-0850_LatLon0.15_PT030H.grib2 2026-04-12 16:18 1.1M
20260412T12Z_MSC_GDPS_AirTemp_IsbL-0875_LatLon0.15_PT030H.grib2 2026-04-12 16:18 1.1M
20260412T12Z_MSC_GDPS_AirTemp_IsbL-0900_LatLon0.15_PT030H.grib2 2026-04-12 16:18 1.1M
20260412T12Z_MSC_GDPS_AirTemp_IsbL-0925_LatLon0.15_PT030H.grib2 2026-04-12 16:18 1.1M
20260412T12Z_MSC_GDPS_AirTemp_IsbL-0950_LatLon0.15_PT030H.grib2 2026-04-12 16:18 1.1M
20260412T12Z_MSC_GDPS_AirTemp_IsbL-0970_LatLon0.15_PT030H.grib2 2026-04-12 16:18 1.1M
20260412T12Z_MSC_GDPS_AirTemp_IsbL-0985_LatLon0.15_PT030H.grib2 2026-04-12 16:18 1.1M
20260412T12Z_MSC_GDPS_AirTemp_IsbL-1000_LatLon0.15_PT030H.grib2 2026-04-12 16:18 1.1M
20260412T12Z_MSC_GDPS_AirTemp_IsbL-1015_LatLon0.15_PT030H.grib2 2026-04-12 16:18 1.1M
20260412T12Z_MSC_GDPS_Albedo_Sfc_LatLon0.15_PT030H.grib2 2026-04-12 16:18 251K
20260412T12Z_MSC_GDPS_CAPE_Sfc_LatLon0.15_PT030H.grib2 2026-04-12 16:18 3.9M
20260412T12Z_MSC_GDPS_CIN_Sfc_LatLon0.15_PT030H.grib2 2026-04-12 16:18 2.9M
20260412T12Z_MSC_GDPS_CloudWater_EAtm_LatLon0.15_PT030H.grib2 2026-04-12 16:18 525K
20260412T12Z_MSC_GDPS_ConvectivePrecip-Accum_Sfc_LatLon0.15_PT030H.grib2 2026-04-12 16:18 2.4M
20260412T12Z_MSC_GDPS_DewPointDepression_AGL-2m_LatLon0.15_PT030H.grib2 2026-04-12 16:18 754K
20260412T12Z_MSC_GDPS_DewPointDepression_IsbL-0010_LatLon0.15_PT030H.grib2 2026-04-12 16:18 807
20260412T12Z_MSC_GDPS_DewPointDepression_IsbL-0020_LatLon0.15_PT030H.grib2 2026-04-12 16:18 48K
20260412T12Z_MSC_GDPS_DewPointDepression_IsbL-0030_LatLon0.15_PT030H.grib2 2026-04-12 16:18 68K
20260412T12Z_MSC_GDPS_DewPointDepression_IsbL-0050_LatLon0.15_PT030H.grib2 2026-04-12 16:18 353K
20260412T12Z_MSC_GDPS_DewPointDepression_IsbL-0100_LatLon0.15_PT030H.grib2 2026-04-12 16:18 372K
20260412T12Z_MSC_GDPS_DewPointDepression_IsbL-0150_LatLon0.15_PT030H.grib2 2026-04-12 16:18 448K
20260412T12Z_MSC_GDPS_DewPointDepression_IsbL-0175_LatLon0.15_PT030H.grib2 2026-04-12 16:18 521K
20260412T12Z_MSC_GDPS_DewPointDepression_IsbL-0200_LatLon0.15_PT030H.grib2 2026-04-12 16:18 619K
20260412T12Z_MSC_GDPS_DewPointDepression_IsbL-0225_LatLon0.15_PT030H.grib2 2026-04-12 16:18 765K
20260412T12Z_MSC_GDPS_DewPointDepression_IsbL-0250_LatLon0.15_PT030H.grib2 2026-04-12 16:18 870K
20260412T12Z_MSC_GDPS_DewPointDepression_IsbL-0275_LatLon0.15_PT030H.grib2 2026-04-12 16:18 896K
20260412T12Z_MSC_GDPS_DewPointDepression_IsbL-0300_LatLon0.15_PT030H.grib2 2026-04-12 16:18 933K
20260412T12Z_MSC_GDPS_DewPointDepression_IsbL-0350_LatLon0.15_PT030H.grib2 2026-04-12 16:18 967K
20260412T12Z_MSC_GDPS_DewPointDepression_IsbL-0400_LatLon0.15_PT030H.grib2 2026-04-12 16:18 1.0M
20260412T12Z_MSC_GDPS_DewPointDepression_IsbL-0450_LatLon0.15_PT030H.grib2 2026-04-12 16:18 1.0M
20260412T12Z_MSC_GDPS_DewPointDepression_IsbL-0500_LatLon0.15_PT030H.grib2 2026-04-12 16:18 1.0M
20260412T12Z_MSC_GDPS_DewPointDepression_IsbL-0550_LatLon0.15_PT030H.grib2 2026-04-12 16:18 1.0M
20260412T12Z_MSC_GDPS_DewPointDepression_IsbL-0600_LatLon0.15_PT030H.grib2 2026-04-12 16:18 1.0M
20260412T12Z_MSC_GDPS_DewPointDepression_IsbL-0650_LatLon0.15_PT030H.grib2 2026-04-12 16:18 1.1M
20260412T12Z_MSC_GDPS_DewPointDepression_IsbL-0700_LatLon0.15_PT030H.grib2 2026-04-12 16:18 1.1M
20260412T12Z_MSC_GDPS_DewPointDepression_IsbL-0750_LatLon0.15_PT030H.grib2 2026-04-12 16:18 1.1M
20260412T12Z_MSC_GDPS_DewPointDepression_IsbL-0800_LatLon0.15_PT030H.grib2 2026-04-12 16:18 1.2M
20260412T12Z_MSC_GDPS_DewPointDepression_IsbL-0850_LatLon0.15_PT030H.grib2 2026-04-12 16:18 1.2M
20260412T12Z_MSC_GDPS_DewPointDepression_IsbL-0875_LatLon0.15_PT030H.grib2 2026-04-12 16:18 1.1M
20260412T12Z_MSC_GDPS_DewPointDepression_IsbL-0900_LatLon0.15_PT030H.grib2 2026-04-12 16:18 1.1M
20260412T12Z_MSC_GDPS_DewPointDepression_IsbL-0925_LatLon0.15_PT030H.grib2 2026-04-12 16:18 1.0M
20260412T12Z_MSC_GDPS_DewPointDepression_IsbL-0950_LatLon0.15_PT030H.grib2 2026-04-12 16:18 1.0M
20260412T12Z_MSC_GDPS_DewPointDepression_IsbL-0970_LatLon0.15_PT030H.grib2 2026-04-12 16:18 1.0M
20260412T12Z_MSC_GDPS_DewPointDepression_IsbL-0985_LatLon0.15_PT030H.grib2 2026-04-12 16:18 1.0M
20260412T12Z_MSC_GDPS_DewPointDepression_IsbL-1000_LatLon0.15_PT030H.grib2 2026-04-12 16:18 1.0M
20260412T12Z_MSC_GDPS_DewPointDepression_IsbL-1015_LatLon0.15_PT030H.grib2 2026-04-12 16:18 913K
20260412T12Z_MSC_GDPS_DewPoint_AGL-2m_LatLon0.15_PT030H.grib2 2026-04-12 16:18 612K
20260412T12Z_MSC_GDPS_DownwardLongwaveRadiationFlux-Accum_Sfc_LatLon0.15_PT030H.grib2 2026-04-12 16:18 1.0M
20260412T12Z_MSC_GDPS_DownwardShortwaveRadiationFlux-Accum_NTAtm_LatLon0.15_PT030H.grib2 2026-04-12 16:18 237K
20260412T12Z_MSC_GDPS_DownwardShortwaveRadiationFlux-Accum_Sfc_LatLon0.15_PT030H.grib2 2026-04-12 16:18 1.0M
20260412T12Z_MSC_GDPS_FreezingRain-Accum12h_Sfc_LatLon0.15_PT030H.grib2 2026-04-12 16:18 47K
20260412T12Z_MSC_GDPS_FreezingRain-Accum1h_Sfc_LatLon0.15_PT030H.grib2 2026-04-12 16:18 22K
20260412T12Z_MSC_GDPS_FreezingRain-Accum24h_Sfc_LatLon0.15_PT030H.grib2 2026-04-12 16:18 72K
20260412T12Z_MSC_GDPS_FreezingRain-Accum3h_Sfc_LatLon0.15_PT030H.grib2 2026-04-12 16:18 16K
20260412T12Z_MSC_GDPS_FreezingRain-Accum6h_Sfc_LatLon0.15_PT030H.grib2 2026-04-12 16:18 33K
20260412T12Z_MSC_GDPS_FreezingRain-Accum_Sfc_LatLon0.15_PT030H.grib2 2026-04-12 16:18 111K
20260412T12Z_MSC_GDPS_GeopotentialHeight_IsbL-0001_LatLon0.15_PT030H.grib2 2026-04-12 16:18 541K
20260412T12Z_MSC_GDPS_GeopotentialHeight_IsbL-0005_LatLon0.15_PT030H.grib2 2026-04-12 16:18 507K
20260412T12Z_MSC_GDPS_GeopotentialHeight_IsbL-0010_LatLon0.15_PT030H.grib2 2026-04-12 16:18 583K
20260412T12Z_MSC_GDPS_GeopotentialHeight_IsbL-0020_LatLon0.15_PT030H.grib2 2026-04-12 16:18 584K
20260412T12Z_MSC_GDPS_GeopotentialHeight_IsbL-0030_LatLon0.15_PT030H.grib2 2026-04-12 16:18 588K
20260412T12Z_MSC_GDPS_GeopotentialHeight_IsbL-0050_LatLon0.15_PT030H.grib2 2026-04-12 16:18 517K
20260412T12Z_MSC_GDPS_GeopotentialHeight_IsbL-0100_LatLon0.15_PT030H.grib2 2026-04-12 16:18 622K
20260412T12Z_MSC_GDPS_GeopotentialHeight_IsbL-0150_LatLon0.15_PT030H.grib2 2026-04-12 16:18 643K
20260412T12Z_MSC_GDPS_GeopotentialHeight_IsbL-0175_LatLon0.15_PT030H.grib2 2026-04-12 16:18 645K
20260412T12Z_MSC_GDPS_GeopotentialHeight_IsbL-0200_LatLon0.15_PT030H.grib2 2026-04-12 16:18 648K
20260412T12Z_MSC_GDPS_GeopotentialHeight_IsbL-0225_LatLon0.15_PT030H.grib2 2026-04-12 16:18 651K
20260412T12Z_MSC_GDPS_GeopotentialHeight_IsbL-0250_LatLon0.15_PT030H.grib2 2026-04-12 16:18 653K
20260412T12Z_MSC_GDPS_GeopotentialHeight_IsbL-0275_LatLon0.15_PT030H.grib2 2026-04-12 16:18 651K
20260412T12Z_MSC_GDPS_GeopotentialHeight_IsbL-0300_LatLon0.15_PT030H.grib2 2026-04-12 16:18 649K
20260412T12Z_MSC_GDPS_GeopotentialHeight_IsbL-0350_LatLon0.15_PT030H.grib2 2026-04-12 16:18 636K
20260412T12Z_MSC_GDPS_GeopotentialHeight_IsbL-0400_LatLon0.15_PT030H.grib2 2026-04-12 16:18 626K
20260412T12Z_MSC_GDPS_GeopotentialHeight_IsbL-0450_LatLon0.15_PT030H.grib2 2026-04-12 16:18 545K
20260412T12Z_MSC_GDPS_GeopotentialHeight_IsbL-0500_LatLon0.15_PT030H.grib2 2026-04-12 16:18 534K
20260412T12Z_MSC_GDPS_GeopotentialHeight_IsbL-0550_LatLon0.15_PT030H.grib2 2026-04-12 16:18 528K
20260412T12Z_MSC_GDPS_GeopotentialHeight_IsbL-0600_LatLon0.15_PT030H.grib2 2026-04-12 16:18 691K
20260412T12Z_MSC_GDPS_GeopotentialHeight_IsbL-0650_LatLon0.15_PT030H.grib2 2026-04-12 16:18 690K
20260412T12Z_MSC_GDPS_GeopotentialHeight_IsbL-0700_LatLon0.15_PT030H.grib2 2026-04-12 16:18 693K
20260412T12Z_MSC_GDPS_GeopotentialHeight_IsbL-0750_LatLon0.15_PT030H.grib2 2026-04-12 16:18 693K
20260412T12Z_MSC_GDPS_GeopotentialHeight_IsbL-0800_LatLon0.15_PT030H.grib2 2026-04-12 16:18 707K
20260412T12Z_MSC_GDPS_GeopotentialHeight_IsbL-0850_LatLon0.15_PT030H.grib2 2026-04-12 16:18 717K
20260412T12Z_MSC_GDPS_GeopotentialHeight_IsbL-0875_LatLon0.15_PT030H.grib2 2026-04-12 16:18 721K
20260412T12Z_MSC_GDPS_GeopotentialHeight_IsbL-0900_LatLon0.15_PT030H.grib2 2026-04-12 16:18 727K
20260412T12Z_MSC_GDPS_GeopotentialHeight_IsbL-0925_LatLon0.15_PT030H.grib2 2026-04-12 16:18 735K
20260412T12Z_MSC_GDPS_GeopotentialHeight_IsbL-0950_LatLon0.15_PT030H.grib2 2026-04-12 16:18 740K
20260412T12Z_MSC_GDPS_GeopotentialHeight_IsbL-0970_LatLon0.15_PT030H.grib2 2026-04-12 16:18 751K
20260412T12Z_MSC_GDPS_GeopotentialHeight_IsbL-0985_LatLon0.15_PT030H.grib2 2026-04-12 16:18 766K
20260412T12Z_MSC_GDPS_GeopotentialHeight_IsbL-1000_LatLon0.15_PT030H.grib2 2026-04-12 16:18 785K
20260412T12Z_MSC_GDPS_GeopotentialHeight_IsbL-1015_LatLon0.15_PT030H.grib2 2026-04-12 16:18 807K
20260412T12Z_MSC_GDPS_Humidex_Sfc_LatLon0.15_PT030H.grib2 2026-04-12 16:18 5.3M
20260412T12Z_MSC_GDPS_IcePellets-Accum12h_Sfc_LatLon0.15_PT030H.grib2 2026-04-12 16:18 29K
20260412T12Z_MSC_GDPS_IcePellets-Accum1h_Sfc_LatLon0.15_PT030H.grib2 2026-04-12 16:18 9.2K
20260412T12Z_MSC_GDPS_IcePellets-Accum24h_Sfc_LatLon0.15_PT030H.grib2 2026-04-12 16:18 41K
20260412T12Z_MSC_GDPS_IcePellets-Accum3h_Sfc_LatLon0.15_PT030H.grib2 2026-04-12 16:18 11K
20260412T12Z_MSC_GDPS_IcePellets-Accum6h_Sfc_LatLon0.15_PT030H.grib2 2026-04-12 16:18 17K
20260412T12Z_MSC_GDPS_IcePellets-Accum_Sfc_LatLon0.15_PT030H.grib2 2026-04-12 16:18 49K
20260412T12Z_MSC_GDPS_KIndex_Sfc_LatLon0.15_PT030H.grib2 2026-04-12 16:18 6.5M
20260412T12Z_MSC_GDPS_LatentHeatNetFlux_Sfc_LatLon0.15_PT030H.grib2 2026-04-12 16:18 508K
20260412T12Z_MSC_GDPS_LiftedIndex-MU-VT_IsbL-0500_LatLon0.15_PT030H.grib2 2026-04-12 16:18 5.4M
20260412T12Z_MSC_GDPS_NetLongwaveRadiationFlux-Accum_Sfc_LatLon0.15_PT030H.grib2 2026-04-12 16:18 1.0M
20260412T12Z_MSC_GDPS_NetShortwaveRadiationFlux-Accum_Sfc_LatLon0.15_PT030H.grib2 2026-04-12 16:18 972K
20260412T12Z_MSC_GDPS_O3MixingRatio_LatLon0.15_PT030H.grib2 2026-04-12 17:05 2.0M
20260412T12Z_MSC_GDPS_O3_EAtm_LatLon0.15_PT030H.grib2 2026-04-12 17:05 2.1M
20260412T12Z_MSC_GDPS_PlanetaryBoundaryLayerHeight_Sfc_LatLon0.15_PT030H.grib2 2026-04-12 16:18 2.4M
20260412T12Z_MSC_GDPS_Precip-Accum12h_Sfc_LatLon0.15_PT030H.grib2 2026-04-12 16:18 4.0M
20260412T12Z_MSC_GDPS_Precip-Accum1h_Sfc_LatLon0.15_PT030H.grib2 2026-04-12 16:18 3.1M
20260412T12Z_MSC_GDPS_Precip-Accum24h_Sfc_LatLon0.15_PT030H.grib2 2026-04-12 16:18 4.2M
20260412T12Z_MSC_GDPS_Precip-Accum3h_Sfc_LatLon0.15_PT030H.grib2 2026-04-12 16:18 3.4M
20260412T12Z_MSC_GDPS_Precip-Accum6h_Sfc_LatLon0.15_PT030H.grib2 2026-04-12 16:18 3.8M
20260412T12Z_MSC_GDPS_Precip-Accum_Sfc_LatLon0.15_PT030H.grib2 2026-04-12 16:18 4.4M
20260412T12Z_MSC_GDPS_PrecipRate_Sfc_LatLon0.15_PT030H.grib2 2026-04-12 16:18 2.8M
20260412T12Z_MSC_GDPS_PrecipType-Instant_Sfc_LatLon0.15_PT030H.grib2 2026-04-12 16:18 1.5M
20260412T12Z_MSC_GDPS_Pressure_MSL_LatLon0.15_PT030H.grib2 2026-04-12 16:18 824K
20260412T12Z_MSC_GDPS_Pressure_PVU-1.5_LatLon0.15_PT030H.grib2 2026-04-12 16:18 5.7M
20260412T12Z_MSC_GDPS_Pressure_PVU-1_LatLon0.15_PT030H.grib2 2026-04-12 16:18 6.0M
20260412T12Z_MSC_GDPS_Pressure_PVU-2_LatLon0.15_PT030H.grib2 2026-04-12 16:18 5.6M
20260412T12Z_MSC_GDPS_Pressure_Sfc_LatLon0.15_PT030H.grib2 2026-04-12 16:18 1.1M
20260412T12Z_MSC_GDPS_RadiativeTemp_Sfc_LatLon0.15_PT030H.grib2 2026-04-12 16:18 669K
20260412T12Z_MSC_GDPS_Rain-Accum12h_Sfc_LatLon0.15_PT030H.grib2 2026-04-12 16:18 2.6M
20260412T12Z_MSC_GDPS_Rain-Accum1h_Sfc_LatLon0.15_PT030H.grib2 2026-04-12 16:18 1.5M
20260412T12Z_MSC_GDPS_Rain-Accum24h_Sfc_LatLon0.15_PT030H.grib2 2026-04-12 16:18 3.0M
20260412T12Z_MSC_GDPS_Rain-Accum3h_Sfc_LatLon0.15_PT030H.grib2 2026-04-12 16:18 1.6M
20260412T12Z_MSC_GDPS_Rain-Accum6h_Sfc_LatLon0.15_PT030H.grib2 2026-04-12 16:18 2.4M
20260412T12Z_MSC_GDPS_Rain-Accum_Sfc_LatLon0.15_PT030H.grib2 2026-04-12 16:18 3.2M
20260412T12Z_MSC_GDPS_RelativeHumidity_AGL-2m_LatLon0.15_PT030H.grib2 2026-04-12 16:18 1.0M
20260412T12Z_MSC_GDPS_RelativeHumidity_IsbL-0010_LatLon0.15_PT030H.grib2 2026-04-12 16:18 247K
20260412T12Z_MSC_GDPS_RelativeHumidity_IsbL-0020_LatLon0.15_PT030H.grib2 2026-04-12 16:18 399K
20260412T12Z_MSC_GDPS_RelativeHumidity_IsbL-0030_LatLon0.15_PT030H.grib2 2026-04-12 16:18 533K
20260412T12Z_MSC_GDPS_RelativeHumidity_IsbL-0050_LatLon0.15_PT030H.grib2 2026-04-12 16:18 418K
20260412T12Z_MSC_GDPS_RelativeHumidity_IsbL-0100_LatLon0.15_PT030H.grib2 2026-04-12 16:18 502K
20260412T12Z_MSC_GDPS_RelativeHumidity_IsbL-0150_LatLon0.15_PT030H.grib2 2026-04-12 16:18 652K
20260412T12Z_MSC_GDPS_RelativeHumidity_IsbL-0175_LatLon0.15_PT030H.grib2 2026-04-12 16:18 766K
20260412T12Z_MSC_GDPS_RelativeHumidity_IsbL-0200_LatLon0.15_PT030H.grib2 2026-04-12 16:18 675K
20260412T12Z_MSC_GDPS_RelativeHumidity_IsbL-0225_LatLon0.15_PT030H.grib2 2026-04-12 16:18 771K
20260412T12Z_MSC_GDPS_RelativeHumidity_IsbL-0250_LatLon0.15_PT030H.grib2 2026-04-12 16:18 858K
20260412T12Z_MSC_GDPS_RelativeHumidity_IsbL-0275_LatLon0.15_PT030H.grib2 2026-04-12 16:18 882K
20260412T12Z_MSC_GDPS_RelativeHumidity_IsbL-0300_LatLon0.15_PT030H.grib2 2026-04-12 16:18 927K
20260412T12Z_MSC_GDPS_RelativeHumidity_IsbL-0350_LatLon0.15_PT030H.grib2 2026-04-12 16:18 955K
20260412T12Z_MSC_GDPS_RelativeHumidity_IsbL-0400_LatLon0.15_PT030H.grib2 2026-04-12 16:18 1.0M
20260412T12Z_MSC_GDPS_RelativeHumidity_IsbL-0450_LatLon0.15_PT030H.grib2 2026-04-12 16:18 1.0M
20260412T12Z_MSC_GDPS_RelativeHumidity_IsbL-0500_LatLon0.15_PT030H.grib2 2026-04-12 16:18 1.0M
20260412T12Z_MSC_GDPS_RelativeHumidity_IsbL-0550_LatLon0.15_PT030H.grib2 2026-04-12 16:18 1.1M
20260412T12Z_MSC_GDPS_RelativeHumidity_IsbL-0600_LatLon0.15_PT030H.grib2 2026-04-12 16:18 1.1M
20260412T12Z_MSC_GDPS_RelativeHumidity_IsbL-0650_LatLon0.15_PT030H.grib2 2026-04-12 16:18 1.1M
20260412T12Z_MSC_GDPS_RelativeHumidity_IsbL-0700_LatLon0.15_PT030H.grib2 2026-04-12 16:18 1.1M
20260412T12Z_MSC_GDPS_RelativeHumidity_IsbL-0750_LatLon0.15_PT030H.grib2 2026-04-12 16:18 1.2M
20260412T12Z_MSC_GDPS_RelativeHumidity_IsbL-0800_LatLon0.15_PT030H.grib2 2026-04-12 16:18 1.2M
20260412T12Z_MSC_GDPS_RelativeHumidity_IsbL-0850_LatLon0.15_PT030H.grib2 2026-04-12 16:18 1.3M
20260412T12Z_MSC_GDPS_RelativeHumidity_IsbL-0875_LatLon0.15_PT030H.grib2 2026-04-12 16:18 1.3M
20260412T12Z_MSC_GDPS_RelativeHumidity_IsbL-0900_LatLon0.15_PT030H.grib2 2026-04-12 16:18 1.2M
20260412T12Z_MSC_GDPS_RelativeHumidity_IsbL-0925_LatLon0.15_PT030H.grib2 2026-04-12 16:18 1.2M
20260412T12Z_MSC_GDPS_RelativeHumidity_IsbL-0950_LatLon0.15_PT030H.grib2 2026-04-12 16:18 1.2M
20260412T12Z_MSC_GDPS_RelativeHumidity_IsbL-0970_LatLon0.15_PT030H.grib2 2026-04-12 16:18 1.2M
20260412T12Z_MSC_GDPS_RelativeHumidity_IsbL-0985_LatLon0.15_PT030H.grib2 2026-04-12 16:18 1.1M
20260412T12Z_MSC_GDPS_RelativeHumidity_IsbL-1000_LatLon0.15_PT030H.grib2 2026-04-12 16:18 1.1M
20260412T12Z_MSC_GDPS_RelativeHumidity_IsbL-1015_LatLon0.15_PT030H.grib2 2026-04-12 16:18 1.0M
20260412T12Z_MSC_GDPS_RelativeVorticity_IsbL-0200_LatLon0.15_PT030H.grib2 2026-04-12 16:18 1.2M
20260412T12Z_MSC_GDPS_RelativeVorticity_IsbL-0250_LatLon0.15_PT030H.grib2 2026-04-12 16:18 1.3M
20260412T12Z_MSC_GDPS_RelativeVorticity_IsbL-0500_LatLon0.15_PT030H.grib2 2026-04-12 16:18 1.2M
20260412T12Z_MSC_GDPS_RelativeVorticity_IsbL-0700_LatLon0.15_PT030H.grib2 2026-04-12 16:18 1.3M
20260412T12Z_MSC_GDPS_RelativeVorticity_IsbL-0850_LatLon0.15_PT030H.grib2 2026-04-12 16:18 1.6M
20260412T12Z_MSC_GDPS_Runoff-Accum_Sfc_LatLon0.15_PT030H.grib2 2026-04-12 16:18 81K
20260412T12Z_MSC_GDPS_SensibleHeatNetFlux_Sfc_LatLon0.15_PT030H.grib2 2026-04-12 16:18 620K
20260412T12Z_MSC_GDPS_ShowalterIndex_IsbL-0500_LatLon0.15_PT030H.grib2 2026-04-12 16:18 6.2M
20260412T12Z_MSC_GDPS_Snow-Accum12h_Sfc_LatLon0.15_PT030H.grib2 2026-04-12 16:18 1.3M
20260412T12Z_MSC_GDPS_Snow-Accum1h_Sfc_LatLon0.15_PT030H.grib2 2026-04-12 16:18 1.0M
20260412T12Z_MSC_GDPS_Snow-Accum24h_Sfc_LatLon0.15_PT030H.grib2 2026-04-12 16:18 1.4M
20260412T12Z_MSC_GDPS_Snow-Accum3h_Sfc_LatLon0.15_PT030H.grib2 2026-04-12 16:18 855K
20260412T12Z_MSC_GDPS_Snow-Accum6h_Sfc_LatLon0.15_PT030H.grib2 2026-04-12 16:18 1.2M
20260412T12Z_MSC_GDPS_Snow-Accum_Sfc_LatLon0.15_PT030H.grib2 2026-04-12 16:18 1.7M
20260412T12Z_MSC_GDPS_SnowDensity_Sfc_LatLon0.15_PT030H.grib2 2026-04-12 16:18 264K
20260412T12Z_MSC_GDPS_SnowDepth_Sfc_LatLon0.15_PT030H.grib2 2026-04-12 16:18 1.8M
20260412T12Z_MSC_GDPS_SoilTemp_DBS-0to10cm_LatLon0.15_PT030H.grib2 2026-04-12 16:18 500K
20260412T12Z_MSC_GDPS_SoilTemp_Sfc_LatLon0.15_PT030H.grib2 2026-04-12 16:18 579K
20260412T12Z_MSC_GDPS_SoilVolumetricIceContent_Sfc_LatLon0.15_PT030H.grib2 2026-04-12 16:18 228K
20260412T12Z_MSC_GDPS_SoilVolumetricWaterContent_DBS-0to10cm_LatLon0.15_PT030H.grib2 2026-04-12 16:18 551K
20260412T12Z_MSC_GDPS_SoilVolumetricWaterContent_DBS-0to1cm_LatLon0.15_PT030H.grib2 2026-04-12 16:18 649K
20260412T12Z_MSC_GDPS_SpecificHumidity_AGL-120m_LatLon0.15_PT030H.grib2 2026-04-12 16:18 1.1M
20260412T12Z_MSC_GDPS_SpecificHumidity_AGL-2m_LatLon0.15_PT030H.grib2 2026-04-12 16:18 1.2M
20260412T12Z_MSC_GDPS_SpecificHumidity_AGL-40m_LatLon0.15_PT030H.grib2 2026-04-12 16:18 1.1M
20260412T12Z_MSC_GDPS_SpecificHumidity_AGL-80m_LatLon0.15_PT030H.grib2 2026-04-12 16:18 1.1M
20260412T12Z_MSC_GDPS_SpecificHumidity_IsbL-0001_LatLon0.15_PT030H.grib2 2026-04-12 16:18 1.3M
20260412T12Z_MSC_GDPS_SpecificHumidity_IsbL-0005_LatLon0.15_PT030H.grib2 2026-04-12 16:18 1.2M
20260412T12Z_MSC_GDPS_SpecificHumidity_IsbL-0010_LatLon0.15_PT030H.grib2 2026-04-12 16:18 1.3M
20260412T12Z_MSC_GDPS_SpecificHumidity_IsbL-0020_LatLon0.15_PT030H.grib2 2026-04-12 16:18 1.4M
20260412T12Z_MSC_GDPS_SpecificHumidity_IsbL-0030_LatLon0.15_PT030H.grib2 2026-04-12 16:18 1.4M
20260412T12Z_MSC_GDPS_SpecificHumidity_IsbL-0050_LatLon0.15_PT030H.grib2 2026-04-12 16:18 1.4M
20260412T12Z_MSC_GDPS_SpecificHumidity_IsbL-0100_LatLon0.15_PT030H.grib2 2026-04-12 16:18 1.3M
20260412T12Z_MSC_GDPS_SpecificHumidity_IsbL-0150_LatLon0.15_PT030H.grib2 2026-04-12 16:18 1.4M
20260412T12Z_MSC_GDPS_SpecificHumidity_IsbL-0175_LatLon0.15_PT030H.grib2 2026-04-12 16:18 1.0M
20260412T12Z_MSC_GDPS_SpecificHumidity_IsbL-0200_LatLon0.15_PT030H.grib2 2026-04-12 16:18 1.0M
20260412T12Z_MSC_GDPS_SpecificHumidity_IsbL-0225_LatLon0.15_PT030H.grib2 2026-04-12 16:18 1.2M
20260412T12Z_MSC_GDPS_SpecificHumidity_IsbL-0250_LatLon0.15_PT030H.grib2 2026-04-12 16:18 1.2M
20260412T12Z_MSC_GDPS_SpecificHumidity_IsbL-0275_LatLon0.15_PT030H.grib2 2026-04-12 16:18 1.1M
20260412T12Z_MSC_GDPS_SpecificHumidity_IsbL-0300_LatLon0.15_PT030H.grib2 2026-04-12 16:18 1.2M
20260412T12Z_MSC_GDPS_SpecificHumidity_IsbL-0350_LatLon0.15_PT030H.grib2 2026-04-12 16:18 1.2M
20260412T12Z_MSC_GDPS_SpecificHumidity_IsbL-0400_LatLon0.15_PT030H.grib2 2026-04-12 16:18 1.4M
20260412T12Z_MSC_GDPS_SpecificHumidity_IsbL-0450_LatLon0.15_PT030H.grib2 2026-04-12 16:18 1.3M
20260412T12Z_MSC_GDPS_SpecificHumidity_IsbL-0500_LatLon0.15_PT030H.grib2 2026-04-12 16:18 1.5M
20260412T12Z_MSC_GDPS_SpecificHumidity_IsbL-0550_LatLon0.15_PT030H.grib2 2026-04-12 16:18 1.3M
20260412T12Z_MSC_GDPS_SpecificHumidity_IsbL-0600_LatLon0.15_PT030H.grib2 2026-04-12 16:18 1.4M
20260412T12Z_MSC_GDPS_SpecificHumidity_IsbL-0650_LatLon0.15_PT030H.grib2 2026-04-12 16:18 1.5M
20260412T12Z_MSC_GDPS_SpecificHumidity_IsbL-0700_LatLon0.15_PT030H.grib2 2026-04-12 16:18 1.6M
20260412T12Z_MSC_GDPS_SpecificHumidity_IsbL-0750_LatLon0.15_PT030H.grib2 2026-04-12 16:18 1.7M
20260412T12Z_MSC_GDPS_SpecificHumidity_IsbL-0800_LatLon0.15_PT030H.grib2 2026-04-12 16:18 1.8M
20260412T12Z_MSC_GDPS_SpecificHumidity_IsbL-0850_LatLon0.15_PT030H.grib2 2026-04-12 16:18 1.9M
20260412T12Z_MSC_GDPS_SpecificHumidity_IsbL-0875_LatLon0.15_PT030H.grib2 2026-04-12 16:18 1.9M
20260412T12Z_MSC_GDPS_SpecificHumidity_IsbL-0900_LatLon0.15_PT030H.grib2 2026-04-12 16:18 1.9M
20260412T12Z_MSC_GDPS_SpecificHumidity_IsbL-0925_LatLon0.15_PT030H.grib2 2026-04-12 16:18 1.6M
20260412T12Z_MSC_GDPS_SpecificHumidity_IsbL-0950_LatLon0.15_PT030H.grib2 2026-04-12 16:18 1.5M
20260412T12Z_MSC_GDPS_SpecificHumidity_IsbL-0970_LatLon0.15_PT030H.grib2 2026-04-12 16:18 1.5M
20260412T12Z_MSC_GDPS_SpecificHumidity_IsbL-0985_LatLon0.15_PT030H.grib2 2026-04-12 16:18 1.5M
20260412T12Z_MSC_GDPS_SpecificHumidity_IsbL-1000_LatLon0.15_PT030H.grib2 2026-04-12 16:18 1.5M
20260412T12Z_MSC_GDPS_SpecificHumidity_IsbL-1015_LatLon0.15_PT030H.grib2 2026-04-12 16:18 1.4M
20260412T12Z_MSC_GDPS_SpecificHumidity_Sfc_LatLon0.15_PT030H.grib2 2026-04-12 16:18 654K
20260412T12Z_MSC_GDPS_Thickness_IsbL-0850to0700_LatLon0.15_PT030H.grib2 2026-04-12 16:18 471K
20260412T12Z_MSC_GDPS_Thickness_IsbL-1000to0500_LatLon0.15_PT030H.grib2 2026-04-12 16:18 374K
20260412T12Z_MSC_GDPS_Thickness_IsbL-1000to0850_LatLon0.15_PT030H.grib2 2026-04-12 16:18 489K
20260412T12Z_MSC_GDPS_TotalCloudCover_Sfc_LatLon0.15_PT030H.grib2 2026-04-12 16:18 822K
20260412T12Z_MSC_GDPS_TotalTotalsIndex_Sfc_LatLon0.15_PT030H.grib2 2026-04-12 16:18 6.2M
20260412T12Z_MSC_GDPS_UVIndex-ClearSky-Max24h_Sfc_LatLon0.15_PT030H.grib2 2026-04-12 17:05 2.3M
20260412T12Z_MSC_GDPS_UVIndex-ClearSky_Sfc_LatLon0.15_PT030H.grib2 2026-04-12 17:05 1.0M
20260412T12Z_MSC_GDPS_UVIndex-Max24h_Sfc_LatLon0.15_PT030H.grib2 2026-04-12 17:05 3.2M
20260412T12Z_MSC_GDPS_UVIndex_Sfc_LatLon0.15_PT030H.grib2 2026-04-12 17:05 1.5M
20260412T12Z_MSC_GDPS_UpwardLongwaveRadiationFlux_NTAtm_LatLon0.15_PT030H.grib2 2026-04-12 16:18 827K
20260412T12Z_MSC_GDPS_VerticalVelocity_IsbL-0200_LatLon0.15_PT030H.grib2 2026-04-12 16:18 1.2M
20260412T12Z_MSC_GDPS_VerticalVelocity_IsbL-0250_LatLon0.15_PT030H.grib2 2026-04-12 16:18 1.1M
20260412T12Z_MSC_GDPS_VerticalVelocity_IsbL-0500_LatLon0.15_PT030H.grib2 2026-04-12 16:18 1.0M
20260412T12Z_MSC_GDPS_VerticalVelocity_IsbL-0600_LatLon0.15_PT030H.grib2 2026-04-12 16:18 1.1M
20260412T12Z_MSC_GDPS_VerticalVelocity_IsbL-0700_LatLon0.15_PT030H.grib2 2026-04-12 16:18 1.1M
20260412T12Z_MSC_GDPS_VerticalVelocity_IsbL-0850_LatLon0.15_PT030H.grib2 2026-04-12 16:18 1.3M
20260412T12Z_MSC_GDPS_WindChill_Sfc_LatLon0.15_PT030H.grib2 2026-04-12 16:18 5.4M
20260412T12Z_MSC_GDPS_WindDir_AGL-10m_LatLon0.15_PT030H.grib2 2026-04-12 16:18 1.3M
20260412T12Z_MSC_GDPS_WindDir_AGL-120m_LatLon0.15_PT030H.grib2 2026-04-12 16:18 1.4M
20260412T12Z_MSC_GDPS_WindDir_AGL-40m_LatLon0.15_PT030H.grib2 2026-04-12 16:18 1.4M
20260412T12Z_MSC_GDPS_WindDir_AGL-80m_LatLon0.15_PT030H.grib2 2026-04-12 16:18 1.4M
20260412T12Z_MSC_GDPS_WindDir_IsbL-0001_LatLon0.15_PT030H.grib2 2026-04-12 16:18 644K
20260412T12Z_MSC_GDPS_WindDir_IsbL-0005_LatLon0.15_PT030H.grib2 2026-04-12 16:18 794K
20260412T12Z_MSC_GDPS_WindDir_IsbL-0010_LatLon0.15_PT030H.grib2 2026-04-12 16:18 854K
20260412T12Z_MSC_GDPS_WindDir_IsbL-0020_LatLon0.15_PT030H.grib2 2026-04-12 16:18 931K
20260412T12Z_MSC_GDPS_WindDir_IsbL-0030_LatLon0.15_PT030H.grib2 2026-04-12 16:18 884K
20260412T12Z_MSC_GDPS_WindDir_IsbL-0050_LatLon0.15_PT030H.grib2 2026-04-12 16:18 949K
20260412T12Z_MSC_GDPS_WindDir_IsbL-0100_LatLon0.15_PT030H.grib2 2026-04-12 16:18 1.0M
20260412T12Z_MSC_GDPS_WindDir_IsbL-0150_LatLon0.15_PT030H.grib2 2026-04-12 16:18 1.0M
20260412T12Z_MSC_GDPS_WindDir_IsbL-0175_LatLon0.15_PT030H.grib2 2026-04-12 16:18 1.0M
20260412T12Z_MSC_GDPS_WindDir_IsbL-0200_LatLon0.15_PT030H.grib2 2026-04-12 16:18 1.1M
20260412T12Z_MSC_GDPS_WindDir_IsbL-0225_LatLon0.15_PT030H.grib2 2026-04-12 16:18 1.1M
20260412T12Z_MSC_GDPS_WindDir_IsbL-0250_LatLon0.15_PT030H.grib2 2026-04-12 16:18 1.1M
20260412T12Z_MSC_GDPS_WindDir_IsbL-0275_LatLon0.15_PT030H.grib2 2026-04-12 16:18 1.2M
20260412T12Z_MSC_GDPS_WindDir_IsbL-0300_LatLon0.15_PT030H.grib2 2026-04-12 16:18 1.2M
20260412T12Z_MSC_GDPS_WindDir_IsbL-0350_LatLon0.15_PT030H.grib2 2026-04-12 16:18 1.2M
20260412T12Z_MSC_GDPS_WindDir_IsbL-0400_LatLon0.15_PT030H.grib2 2026-04-12 16:18 1.3M
20260412T12Z_MSC_GDPS_WindDir_IsbL-0450_LatLon0.15_PT030H.grib2 2026-04-12 16:18 1.3M
20260412T12Z_MSC_GDPS_WindDir_IsbL-0500_LatLon0.15_PT030H.grib2 2026-04-12 16:18 1.3M
20260412T12Z_MSC_GDPS_WindDir_IsbL-0550_LatLon0.15_PT030H.grib2 2026-04-12 16:18 1.4M
20260412T12Z_MSC_GDPS_WindDir_IsbL-0600_LatLon0.15_PT030H.grib2 2026-04-12 16:18 1.4M
20260412T12Z_MSC_GDPS_WindDir_IsbL-0650_LatLon0.15_PT030H.grib2 2026-04-12 16:18 1.5M
20260412T12Z_MSC_GDPS_WindDir_IsbL-0700_LatLon0.15_PT030H.grib2 2026-04-12 16:18 1.6M
20260412T12Z_MSC_GDPS_WindDir_IsbL-0750_LatLon0.15_PT030H.grib2 2026-04-12 16:18 1.7M
20260412T12Z_MSC_GDPS_WindDir_IsbL-0800_LatLon0.15_PT030H.grib2 2026-04-12 16:18 1.8M
20260412T12Z_MSC_GDPS_WindDir_IsbL-0850_LatLon0.15_PT030H.grib2 2026-04-12 16:18 1.9M
20260412T12Z_MSC_GDPS_WindDir_IsbL-0875_LatLon0.15_PT030H.grib2 2026-04-12 16:18 1.9M
20260412T12Z_MSC_GDPS_WindDir_IsbL-0900_LatLon0.15_PT030H.grib2 2026-04-12 16:18 2.0M
20260412T12Z_MSC_GDPS_WindDir_IsbL-0925_LatLon0.15_PT030H.grib2 2026-04-12 16:18 2.0M
20260412T12Z_MSC_GDPS_WindDir_IsbL-0950_LatLon0.15_PT030H.grib2 2026-04-12 16:18 2.0M
20260412T12Z_MSC_GDPS_WindDir_IsbL-0970_LatLon0.15_PT030H.grib2 2026-04-12 16:18 2.0M
20260412T12Z_MSC_GDPS_WindDir_IsbL-0985_LatLon0.15_PT030H.grib2 2026-04-12 16:18 2.0M
20260412T12Z_MSC_GDPS_WindDir_IsbL-1000_LatLon0.15_PT030H.grib2 2026-04-12 16:18 2.1M
20260412T12Z_MSC_GDPS_WindDir_IsbL-1015_LatLon0.15_PT030H.grib2 2026-04-12 16:18 2.0M
20260412T12Z_MSC_GDPS_WindGust-Max_AGL-10m_LatLon0.15_PT030H.grib2 2026-04-12 16:18 2.2M
20260412T12Z_MSC_GDPS_WindGust-Min_AGL-10m_LatLon0.15_PT030H.grib2 2026-04-12 16:18 2.2M
20260412T12Z_MSC_GDPS_WindGust_AGL-10m_LatLon0.15_PT030H.grib2 2026-04-12 16:18 2.2M
20260412T12Z_MSC_GDPS_WindSpeed_AGL-10m_LatLon0.15_PT030H.grib2 2026-04-12 16:18 1.1M
20260412T12Z_MSC_GDPS_WindSpeed_AGL-120m_LatLon0.15_PT030H.grib2 2026-04-12 16:18 1.2M
20260412T12Z_MSC_GDPS_WindSpeed_AGL-40m_LatLon0.15_PT030H.grib2 2026-04-12 16:18 1.2M
20260412T12Z_MSC_GDPS_WindSpeed_AGL-80m_LatLon0.15_PT030H.grib2 2026-04-12 16:18 1.2M
20260412T12Z_MSC_GDPS_WindSpeed_IsbL-0001_LatLon0.15_PT030H.grib2 2026-04-12 16:18 634K
20260412T12Z_MSC_GDPS_WindSpeed_IsbL-0005_LatLon0.15_PT030H.grib2 2026-04-12 16:18 693K
20260412T12Z_MSC_GDPS_WindSpeed_IsbL-0010_LatLon0.15_PT030H.grib2 2026-04-12 16:18 631K
20260412T12Z_MSC_GDPS_WindSpeed_IsbL-0020_LatLon0.15_PT030H.grib2 2026-04-12 16:18 871K
20260412T12Z_MSC_GDPS_WindSpeed_IsbL-0030_LatLon0.15_PT030H.grib2 2026-04-12 16:18 861K
20260412T12Z_MSC_GDPS_WindSpeed_IsbL-0050_LatLon0.15_PT030H.grib2 2026-04-12 16:18 918K
20260412T12Z_MSC_GDPS_WindSpeed_IsbL-0100_LatLon0.15_PT030H.grib2 2026-04-12 16:18 1.1M
20260412T12Z_MSC_GDPS_WindSpeed_IsbL-0150_LatLon0.15_PT030H.grib2 2026-04-12 16:18 1.0M
20260412T12Z_MSC_GDPS_WindSpeed_IsbL-0175_LatLon0.15_PT030H.grib2 2026-04-12 16:18 1.0M
20260412T12Z_MSC_GDPS_WindSpeed_IsbL-0200_LatLon0.15_PT030H.grib2 2026-04-12 16:18 1.1M
20260412T12Z_MSC_GDPS_WindSpeed_IsbL-0225_LatLon0.15_PT030H.grib2 2026-04-12 16:18 1.1M
20260412T12Z_MSC_GDPS_WindSpeed_IsbL-0250_LatLon0.15_PT030H.grib2 2026-04-12 16:18 1.1M
20260412T12Z_MSC_GDPS_WindSpeed_IsbL-0275_LatLon0.15_PT030H.grib2 2026-04-12 16:18 1.1M
20260412T12Z_MSC_GDPS_WindSpeed_IsbL-0300_LatLon0.15_PT030H.grib2 2026-04-12 16:18 1.1M
20260412T12Z_MSC_GDPS_WindSpeed_IsbL-0350_LatLon0.15_PT030H.grib2 2026-04-12 16:18 1.1M
20260412T12Z_MSC_GDPS_WindSpeed_IsbL-0400_LatLon0.15_PT030H.grib2 2026-04-12 16:18 1.1M
20260412T12Z_MSC_GDPS_WindSpeed_IsbL-0450_LatLon0.15_PT030H.grib2 2026-04-12 16:18 1.1M
20260412T12Z_MSC_GDPS_WindSpeed_IsbL-0500_LatLon0.15_PT030H.grib2 2026-04-12 16:18 1.1M
20260412T12Z_MSC_GDPS_WindSpeed_IsbL-0550_LatLon0.15_PT030H.grib2 2026-04-12 16:18 1.1M
20260412T12Z_MSC_GDPS_WindSpeed_IsbL-0600_LatLon0.15_PT030H.grib2 2026-04-12 16:18 1.1M
20260412T12Z_MSC_GDPS_WindSpeed_IsbL-0650_LatLon0.15_PT030H.grib2 2026-04-12 16:18 1.2M
20260412T12Z_MSC_GDPS_WindSpeed_IsbL-0700_LatLon0.15_PT030H.grib2 2026-04-12 16:18 1.5M
20260412T12Z_MSC_GDPS_WindSpeed_IsbL-0750_LatLon0.15_PT030H.grib2 2026-04-12 16:18 1.6M
20260412T12Z_MSC_GDPS_WindSpeed_IsbL-0800_LatLon0.15_PT030H.grib2 2026-04-12 16:18 1.7M
20260412T12Z_MSC_GDPS_WindSpeed_IsbL-0850_LatLon0.15_PT030H.grib2 2026-04-12 16:18 1.7M
20260412T12Z_MSC_GDPS_WindSpeed_IsbL-0875_LatLon0.15_PT030H.grib2 2026-04-12 16:18 1.8M
20260412T12Z_MSC_GDPS_WindSpeed_IsbL-0900_LatLon0.15_PT030H.grib2 2026-04-12 16:18 1.8M
20260412T12Z_MSC_GDPS_WindSpeed_IsbL-0925_LatLon0.15_PT030H.grib2 2026-04-12 16:18 1.9M
20260412T12Z_MSC_GDPS_WindSpeed_IsbL-0950_LatLon0.15_PT030H.grib2 2026-04-12 16:18 1.9M
20260412T12Z_MSC_GDPS_WindSpeed_IsbL-0970_LatLon0.15_PT030H.grib2 2026-04-12 16:18 1.9M
20260412T12Z_MSC_GDPS_WindSpeed_IsbL-0985_LatLon0.15_PT030H.grib2 2026-04-12 16:18 1.9M
20260412T12Z_MSC_GDPS_WindSpeed_IsbL-1000_LatLon0.15_PT030H.grib2 2026-04-12 16:18 1.9M
20260412T12Z_MSC_GDPS_WindSpeed_IsbL-1015_LatLon0.15_PT030H.grib2 2026-04-12 16:18 1.8M
20260412T12Z_MSC_GDPS_WindU_AGL-10m_LatLon0.15_PT030H.grib2 2026-04-12 16:18 1.3M
20260412T12Z_MSC_GDPS_WindU_AGL-120m_LatLon0.15_PT030H.grib2 2026-04-12 16:18 1.0M
20260412T12Z_MSC_GDPS_WindU_AGL-40m_LatLon0.15_PT030H.grib2 2026-04-12 16:18 972K
20260412T12Z_MSC_GDPS_WindU_AGL-80m_LatLon0.15_PT030H.grib2 2026-04-12 16:18 1.0M
20260412T12Z_MSC_GDPS_WindU_IsbL-0001_LatLon0.15_PT030H.grib2 2026-04-12 16:18 497K
20260412T12Z_MSC_GDPS_WindU_IsbL-0005_LatLon0.15_PT030H.grib2 2026-04-12 16:18 690K
20260412T12Z_MSC_GDPS_WindU_IsbL-0010_LatLon0.15_PT030H.grib2 2026-04-12 16:18 706K
20260412T12Z_MSC_GDPS_WindU_IsbL-0020_LatLon0.15_PT030H.grib2 2026-04-12 16:18 745K
20260412T12Z_MSC_GDPS_WindU_IsbL-0030_LatLon0.15_PT030H.grib2 2026-04-12 16:18 740K
20260412T12Z_MSC_GDPS_WindU_IsbL-0050_LatLon0.15_PT030H.grib2 2026-04-12 16:18 709K
20260412T12Z_MSC_GDPS_WindU_IsbL-0100_LatLon0.15_PT030H.grib2 2026-04-12 16:18 936K
20260412T12Z_MSC_GDPS_WindU_IsbL-0150_LatLon0.15_PT030H.grib2 2026-04-12 16:18 1.0M
20260412T12Z_MSC_GDPS_WindU_IsbL-0175_LatLon0.15_PT030H.grib2 2026-04-12 16:18 1.0M
20260412T12Z_MSC_GDPS_WindU_IsbL-0200_LatLon0.15_PT030H.grib2 2026-04-12 16:18 848K
20260412T12Z_MSC_GDPS_WindU_IsbL-0225_LatLon0.15_PT030H.grib2 2026-04-12 16:18 857K
20260412T12Z_MSC_GDPS_WindU_IsbL-0250_LatLon0.15_PT030H.grib2 2026-04-12 16:18 858K
20260412T12Z_MSC_GDPS_WindU_IsbL-0275_LatLon0.15_PT030H.grib2 2026-04-12 16:18 885K
20260412T12Z_MSC_GDPS_WindU_IsbL-0300_LatLon0.15_PT030H.grib2 2026-04-12 16:18 877K
20260412T12Z_MSC_GDPS_WindU_IsbL-0350_LatLon0.15_PT030H.grib2 2026-04-12 16:18 892K
20260412T12Z_MSC_GDPS_WindU_IsbL-0400_LatLon0.15_PT030H.grib2 2026-04-12 16:18 891K
20260412T12Z_MSC_GDPS_WindU_IsbL-0450_LatLon0.15_PT030H.grib2 2026-04-12 16:18 894K
20260412T12Z_MSC_GDPS_WindU_IsbL-0500_LatLon0.15_PT030H.grib2 2026-04-12 16:18 898K
20260412T12Z_MSC_GDPS_WindU_IsbL-0550_LatLon0.15_PT030H.grib2 2026-04-12 16:18 1.1M
20260412T12Z_MSC_GDPS_WindU_IsbL-0600_LatLon0.15_PT030H.grib2 2026-04-12 16:18 1.1M
20260412T12Z_MSC_GDPS_WindU_IsbL-0650_LatLon0.15_PT030H.grib2 2026-04-12 16:18 1.2M
20260412T12Z_MSC_GDPS_WindU_IsbL-0700_LatLon0.15_PT030H.grib2 2026-04-12 16:18 1.2M
20260412T12Z_MSC_GDPS_WindU_IsbL-0750_LatLon0.15_PT030H.grib2 2026-04-12 16:18 1.3M
20260412T12Z_MSC_GDPS_WindU_IsbL-0800_LatLon0.15_PT030H.grib2 2026-04-12 16:18 1.3M
20260412T12Z_MSC_GDPS_WindU_IsbL-0850_LatLon0.15_PT030H.grib2 2026-04-12 16:18 1.4M
20260412T12Z_MSC_GDPS_WindU_IsbL-0875_LatLon0.15_PT030H.grib2 2026-04-12 16:18 1.5M
20260412T12Z_MSC_GDPS_WindU_IsbL-0900_LatLon0.15_PT030H.grib2 2026-04-12 16:18 1.5M
20260412T12Z_MSC_GDPS_WindU_IsbL-0925_LatLon0.15_PT030H.grib2 2026-04-12 16:18 1.5M
20260412T12Z_MSC_GDPS_WindU_IsbL-0950_LatLon0.15_PT030H.grib2 2026-04-12 16:18 1.4M
20260412T12Z_MSC_GDPS_WindU_IsbL-0970_LatLon0.15_PT030H.grib2 2026-04-12 16:18 1.4M
20260412T12Z_MSC_GDPS_WindU_IsbL-0985_LatLon0.15_PT030H.grib2 2026-04-12 16:18 1.4M
20260412T12Z_MSC_GDPS_WindU_IsbL-1000_LatLon0.15_PT030H.grib2 2026-04-12 16:18 1.4M
20260412T12Z_MSC_GDPS_WindU_IsbL-1015_LatLon0.15_PT030H.grib2 2026-04-12 16:18 1.3M
20260412T12Z_MSC_GDPS_WindV_AGL-10m_LatLon0.15_PT030H.grib2 2026-04-12 16:18 1.3M
20260412T12Z_MSC_GDPS_WindV_AGL-120m_LatLon0.15_PT030H.grib2 2026-04-12 16:18 1.0M
20260412T12Z_MSC_GDPS_WindV_AGL-40m_LatLon0.15_PT030H.grib2 2026-04-12 16:18 971K
20260412T12Z_MSC_GDPS_WindV_AGL-80m_LatLon0.15_PT030H.grib2 2026-04-12 16:18 1.0M
20260412T12Z_MSC_GDPS_WindV_IsbL-0001_LatLon0.15_PT030H.grib2 2026-04-12 16:18 637K
20260412T12Z_MSC_GDPS_WindV_IsbL-0005_LatLon0.15_PT030H.grib2 2026-04-12 16:18 776K
20260412T12Z_MSC_GDPS_WindV_IsbL-0010_LatLon0.15_PT030H.grib2 2026-04-12 16:18 808K
20260412T12Z_MSC_GDPS_WindV_IsbL-0020_LatLon0.15_PT030H.grib2 2026-04-12 16:18 866K
20260412T12Z_MSC_GDPS_WindV_IsbL-0030_LatLon0.15_PT030H.grib2 2026-04-12 16:18 860K
20260412T12Z_MSC_GDPS_WindV_IsbL-0050_LatLon0.15_PT030H.grib2 2026-04-12 16:18 914K
20260412T12Z_MSC_GDPS_WindV_IsbL-0100_LatLon0.15_PT030H.grib2 2026-04-12 16:18 866K
20260412T12Z_MSC_GDPS_WindV_IsbL-0150_LatLon0.15_PT030H.grib2 2026-04-12 16:18 1.0M
20260412T12Z_MSC_GDPS_WindV_IsbL-0175_LatLon0.15_PT030H.grib2 2026-04-12 16:18 1.0M
20260412T12Z_MSC_GDPS_WindV_IsbL-0200_LatLon0.15_PT030H.grib2 2026-04-12 16:18 1.1M
20260412T12Z_MSC_GDPS_WindV_IsbL-0225_LatLon0.15_PT030H.grib2 2026-04-12 16:18 852K
20260412T12Z_MSC_GDPS_WindV_IsbL-0250_LatLon0.15_PT030H.grib2 2026-04-12 16:18 852K
20260412T12Z_MSC_GDPS_WindV_IsbL-0275_LatLon0.15_PT030H.grib2 2026-04-12 16:18 877K
20260412T12Z_MSC_GDPS_WindV_IsbL-0300_LatLon0.15_PT030H.grib2 2026-04-12 16:18 868K
20260412T12Z_MSC_GDPS_WindV_IsbL-0350_LatLon0.15_PT030H.grib2 2026-04-12 16:18 882K
20260412T12Z_MSC_GDPS_WindV_IsbL-0400_LatLon0.15_PT030H.grib2 2026-04-12 16:18 882K
20260412T12Z_MSC_GDPS_WindV_IsbL-0450_LatLon0.15_PT030H.grib2 2026-04-12 16:18 884K
20260412T12Z_MSC_GDPS_WindV_IsbL-0500_LatLon0.15_PT030H.grib2 2026-04-12 16:18 1.1M
20260412T12Z_MSC_GDPS_WindV_IsbL-0550_LatLon0.15_PT030H.grib2 2026-04-12 16:18 1.1M
20260412T12Z_MSC_GDPS_WindV_IsbL-0600_LatLon0.15_PT030H.grib2 2026-04-12 16:18 1.1M
20260412T12Z_MSC_GDPS_WindV_IsbL-0650_LatLon0.15_PT030H.grib2 2026-04-12 16:18 1.2M
20260412T12Z_MSC_GDPS_WindV_IsbL-0700_LatLon0.15_PT030H.grib2 2026-04-12 16:18 1.2M
20260412T12Z_MSC_GDPS_WindV_IsbL-0750_LatLon0.15_PT030H.grib2 2026-04-12 16:18 1.3M
20260412T12Z_MSC_GDPS_WindV_IsbL-0800_LatLon0.15_PT030H.grib2 2026-04-12 16:18 1.3M
20260412T12Z_MSC_GDPS_WindV_IsbL-0850_LatLon0.15_PT030H.grib2 2026-04-12 16:18 1.4M
20260412T12Z_MSC_GDPS_WindV_IsbL-0875_LatLon0.15_PT030H.grib2 2026-04-12 16:18 1.4M
20260412T12Z_MSC_GDPS_WindV_IsbL-0900_LatLon0.15_PT030H.grib2 2026-04-12 16:18 1.5M
20260412T12Z_MSC_GDPS_WindV_IsbL-0925_LatLon0.15_PT030H.grib2 2026-04-12 16:18 1.4M
20260412T12Z_MSC_GDPS_WindV_IsbL-0950_LatLon0.15_PT030H.grib2 2026-04-12 16:18 1.4M
20260412T12Z_MSC_GDPS_WindV_IsbL-0970_LatLon0.15_PT030H.grib2 2026-04-12 16:18 1.4M
20260412T12Z_MSC_GDPS_WindV_IsbL-0985_LatLon0.15_PT030H.grib2 2026-04-12 16:18 1.4M
20260412T12Z_MSC_GDPS_WindV_IsbL-1000_LatLon0.15_PT030H.grib2 2026-04-12 16:18 1.4M
20260412T12Z_MSC_GDPS_WindV_IsbL-1015_LatLon0.15_PT030H.grib2 2026-04-12 16:18 1.3M